Miscellaneous Local Product
Issued by NWS Hastings, NE

Home | Current Version | Previous Version | Text Only | Print | Product List | Glossary On
Versions: 1 2 3 4 5 6 7 8 9 10 11 12 13 14 15 16 17 18 19 20 21 22 23 24 25 26 27 28 29 30 31 32 33 34 35 36 37 38 39 40 41 42 43 44 45 46 47 48 49 50
000
AXUS43 KGID 300802
MISGRI

GID CWA HOURLY WEATHER ROUNDUP
NATIONAL WEATHER SERVICE HASTINGS NE
300 AM CDT TUE JUN 30 2015

NOTE: "FAIR" INDICATES FEW OR NO CLOUDS BELOW 12,000 FEET WITH NO
SIGNIFICANT WEATHER AND/OR OBSTRUCTIONS TO VISIBILITY.

...SOUTH CENTRAL NEBRASKA...

CITY           SKY/WX    TMP DP  RH WIND       PRES   REMARKS
GRAND ISLAND   CLEAR     65  59  81 CALM      29.98F
HASTINGS       CLEAR     69  61  75 SW5       29.99F
KEARNEY        CLEAR     64  59  82 CALM      30.00F
ORD            CLEAR     61  57  87 CALM      29.97F
YORK           CLEAR     66  63  88 CALM      29.98S
AURORA         CLEAR     65  63  91 SW6       29.98F
LEXINGTON      CLEAR     64  61  89 CALM      30.01F
HOLDREGE       CLEAR     70  59  68 SW6       30.01F
HEBRON         CLEAR     65  62  89 CALM      29.97S

...NEBRASKA PANHANDLE...

CITY           SKY/WX    TMP DP  RH WIND       PRES   REMARKS
CHADRON        PTCLDY    61  59  93 W5        30.03F
ALLIANCE       CLEAR     58  55  90 W3        30.08F
SCOTTSBLUFF    CLEAR     63  55  75 CALM      30.09F
SIDNEY         CLEAR     60  56  86 W6        30.13F

...WESTERN AND NORTH CENTRAL NEBRASKA...

CITY           SKY/WX    TMP DP  RH WIND       PRES   REMARKS
VALENTINE      CLEAR     64  59  83 SW5       29.98F
AINSWORTH      CLEAR     63  58  84 SW7       29.99F
ONEILL         PTCLDY    66  63  88 S5        29.96F
BROKEN BOW     CLEAR     63  58  83 CALM      30.00F
IMPERIAL       PTCLDY    65  57  75 W3        30.06F
NORTH PLATTE   CLEAR     64  60  87 NE3       30.03F
MCCOOK         CLEAR     67  58  72 SW7       30.02F

...EASTERN NEBRASKA...

CITY           SKY/WX    TMP DP  RH WIND       PRES   REMARKS
NORFOLK        PTCLDY    66  60  81 CALM      29.94S
SO SIOUX CITY  MOCLDY    65  59  81 NW5       29.90F
TEKAMAH        PTCLDY    69  61  75 SW6       29.90F
COLUMBUS       CLEAR     64  57  77 CALM      29.96F
ALBION         CLEAR     61  57  87 CALM      29.97F FOG
OMAHA EPPLEY   CLOUDY    68  64  87 SE5       29.91F
MILLARD        CLEAR     66  64  94 CALM      29.91F FOG
LINCOLN        CLEAR     64  61  90 CALM      29.95S
NEBRASKA CITY  CLEAR     67  59  77 W7        29.93F
BEATRICE       CLEAR     65  63  92 CALM      29.96R
FALLS CITY     PTCLDY    68  64  87 W3        29.92S

...NORTHERN KANSAS...

CITY           SKY/WX    TMP DP  RH WIND       PRES   REMARKS
GOODLAND       CLEAR     66  54  65 SW8       30.09F
HILL CITY      CLEAR     64  54  69 CALM      30.02F
NORTON         SUNNY     68  55  64 SE3       30.00F
PHILLIPSBURG   CLEAR     68  59  73 CALM      30.00F
SMITH CENTER   MOCLDY    68  59  73 CALM      30.00S
HAYS           CLEAR     64  50  59 NW3       30.01F
RUSSELL        CLEAR     72  58  61 S10       29.98F
CONCORDIA      CLEAR     70  58  65 SW10      29.97F
SALINA         CLEAR     66  59  78 S3        29.98F
TOPEKA         CLEAR     68  66  93 CALM      29.94S



USA.gov is the U.S. government's official web portal to all federal, state and local government web resources and services.